格洛纳斯M-755 COSMOS 2500 [GLONASS-M]

导读 | 星芒AI

COSMOS 2500 是一颗俄罗斯 GLONASS-M 导航卫星,于2018年12月12日由联盟-2.1b火箭从普列谢茨克航天发射场发射升空。该卫星属于GLONASS卫星导航系统,用于提供高精度的全球定位和时间同步服务。GLONASS-M 系列卫星具备较长的使用寿命(约7年),并配备现代化的导航信号,以增强系统性能和兼容性。COSMOS 2500 运行在中地球轨道,是俄罗斯维持和扩展其全球导航能力的重要组成部分。

基本信息
目录编号:
40001
目录名称:
COSMOS 2500 (GLONASS)
国际标识:
2014-032A
轨道中心:
EARTH
卫星名称:
格洛纳斯M-755
卫星全名:
格洛纳斯M-755 COSMOS 2500 [GLONASS-M]
卫星状态:
在轨 (已飞行4158 天)
发射日期:
2014-06-14 UTC
国别 :
俄罗斯(独联体) (CIS)
星等 :
--
轨道信息
数据来源 国际轨道数据 AOE轨道数据
星历时间 2025-10-30T10:30:34+0800
2天前
查看轨道信息
2025-10-26T05:00:00+0800
6天前
查看轨道信息
半长轴 25507.714km 25507.65km
偏心率 0.0009189 0.0009198
轨道倾角 65.367° 65.369°
近地点辐角 215.214° 214.802°
升交点赤经 321.517° 321.662°
平近点角 144.777° 140.376°
近地点 19106.139km 19106.053km
远地点 19153.019km 19152.977km
周期 675.720分钟 675.718分钟
每日圈数 2.131059 2.131067
详细信息
平衡模式:
三轴稳定
覆盖范围:
全球
运营商:
列舍特涅夫卫星信息系统
运营商所在国:
俄罗斯
制造商(研发单位):
列舍特涅夫卫星信息系统
制造商所在国:
俄罗斯
使用方式:
暂无
卫星简介
格洛纳斯(GLONASS )是苏联/俄罗斯研制卫星导航系统。标准配置为24颗卫星,其中18颗卫星就能保证该系统为俄罗斯境内用户提供全部服务。该卫星仍在工作。
2D轨道图
3D轨道图
轨道高度分析图
轨道倾角分析图
轨道综合分析图
查看轨道综合分析图